Simultaneous Nadir Overpasses (SNOs) Predictions

Prediction of SNOs between NOAA-19 and TERRA Satellite Orbit:

Table of predicted SNOs for the next 14.0 days since TLE Epoch: 4/6/2019
Index Date (NOAA-19) Time (NOAA-19) Lat,Lon (NOAA-19) SZA (NOAA-19 ) Date (TERRA) Time (TERRA) Lat,Lon (TERRA) SZA (TERRA ) Distance(km) Time Diff (sec)
1 04/07/2019 14:56:29 -78.21, 156.94 107.95 04/07/2019 14:56:59 -78.21, 156.78 107.96 3.72 30
2 04/07/2019 15:47:33 78.19, -35.69 72.03 04/07/2019 15:46:25 78.20, -35.60 72.03 2.60 68
3 04/09/2019 20:30:02 78.26,-106.63 71.26 04/09/2019 20:30:42 78.23,-106.56 71.25 3.64 40
4 04/09/2019 21:20:57 -78.22, 60.85 108.77 04/09/2019 21:20:10 -78.19, 60.92 108.81 3.59 47
5 04/12/2019 02:03:25 -78.27, -9.95 109.54 04/12/2019 02:04:26 -78.26, -9.82 109.52 2.98 61
6 04/12/2019 02:54:29 78.22, 157.57 70.43 04/12/2019 02:53:53 78.21, 157.57 70.41 0.94 36
7 04/14/2019 07:36:57 78.25, 86.83 69.67 04/14/2019 07:38:09 78.28, 86.82 69.71 2.60 72
8 04/14/2019 08:27:52 -78.24,-105.83 110.36 04/14/2019 08:27:37 -78.25,-105.69 110.35 3.22 15
9 04/16/2019 14:01:25 78.26, -9.23 68.88 04/16/2019 14:01:20 78.26, -9.06 68.89 3.79 5
10 04/18/2019 19:34:47 -78.26, 87.48 111.89 04/18/2019 19:35:05 -78.26, 87.49 111.89 0.75 18




NCC Satellite Simultaneous Nadir Overpasses (SNOs) Prediction Service
